This demonstration page uses our WeatherBlox Daily Observations layout. Learn more.

Left ArrowRight Arrow

Hourly Observations for September 22, 2021

Temp ( °F °C ) Dew Point ( °F °C ) Humidity (%) Winds ( mph kmh ) Pressure ( in mb ) Visibility ( mi km ) Precip ( " mm )
12:53 am 00:53 Clear 53 11.7 30 -1.1 41 41 WSW 9 15 30.09 1019 10 16 N/A
1:53 am 01:53 Clear 50 10 31 -0.6 48 48 WSW 8 13 30.09 1019 10 16 N/A
2:53 am 02:53 Clear 48 8.9 31 -0.6 52 52 SW 9 15 30.08 1019 10 16 N/A
3:53 am 03:53 Clear 49 9.4 31 -0.6 50 50 SW 12 19 30.07 1018 10 16 N/A
4:53 am 04:53 Clear 50 10 31 -0.6 48 48 WSW 3 6 30.05 1018 10 16 N/A
5:53 am 05:53 Clear 44 6.7 31 -0.6 60 60 WSW 8 13 30.03 1017 10 16 N/A
6:53 am 06:53 Clear 47 8.3 31 -0.6 54 54 WSW 7 11 30.01 1016 10 16 N/A
7:53 am 07:53 Sunny 48 8.9 31 -0.6 52 52 WSW 6 9 30.02 1017 10 16 N/A
8:53 am 08:53 Sunny 56 13.3 32 undefined 40 40 WSW 10 17 30.00 1016 10 16 N/A
9:53 am 09:53 Sunny 66 18.9 31 -0.6 27 27 SW 12 19 29.98 1015 10 16 N/A
10:53 am 10:53 Sunny 73 22.8 31 -0.6 21 21 WSW 21 33 29.94 1014 10 16 N/A
11:53 am 11:53 Sunny 76 24.4 32 undefined 20 20 WSW 16 26 29.91 1013 10 16 N/A
12:53 pm 12:53 Sunny 81 27.2 32 undefined 17 17 WSW 15 24 29.88 1012 10 16 N/A
1:53 pm 13:53 Sunny 84 28.9 29 -1.7 13 13 W 21 33 29.85 1011 10 16 N/A
2:53 pm 14:53 Sunny 86 30 29 -1.7 13 13 W 17 28 29.83 1010 10 16 N/A
3:53 pm 15:53 Sunny 86 30 30 -1.1 13 13 W 21 33 29.82 1010 10 16 N/A
4:53 pm 16:53 Sunny 84 28.9 29 -1.7 13 13 NW 21 33 29.82 1010 10 16 N/A
5:53 pm 17:53 Sunny 82 27.8 29 -1.7 14 14 WNW 23 37 29.82 1010 10 16 N/A
6:53 pm 18:53 Sunny 76 24.4 30 -1.1 18 18 NW 13 20 29.83 1010 10 16 N/A
7:53 pm 19:53 Clear 68 20 30 -1.1 24 24 WNW 6 9 29.86 1011 10 16 N/A
8:53 pm 20:53 Clear 66 18.9 31 -0.6 27 27 S 6 9 29.87 1012 10 16 N/A
9:53 pm 21:53 Clear 68 20 32 undefined 26 26 W 12 19 29.87 1012 10 16 N/A
10:53 pm 22:53 Clear 65 18.3 34 1.1 32 32 NW 5 7 29.87 1012 10 16 N/A
11:53 pm 23:53 Clear 59 15 33 0.6 38 38 N N/A 29.88 1012 10 16 N/A

Powered by AerisWeather